Wind_Speed
46 46 44 42 40 37 36 34 34 33 33 33 34 35 34 33 33 35 39 40 53 54 57 53 52 53 54 50 46 49 44 47 43 39 35 31 33 34 32 31 29 29 27
47 45 43 39 37 36 36 36 37 36 34 33 31 31 33 33 34 36 38 41 41 55 58 56 54 55 56 53 57 51 59 56 49 43 39 34 36 36 34 32 31 30 28
44 43 41 37 36 37 37 38 37 36 34 32 31 31 32 33 33 34 36 38 38 49 57 58 55 56 56 55 51 41 45 66 54 46 42 37 38 38 35 34 33 31 30
43 40 37 36 37 38 38 37 34 33 32 33 32 31 32 34 34 34 34 34 33 40 56 58 55 56 54 56 59 44 62 59 52 48 44 40 41 40 37 35 34 33 31
39 37 37 38 39 38 36 34 32 32 32 33 32 30 30 34 34 34 33 32 32 35 53 56 56 57 55 59 55 52 48 57 51 48 45 43 43 42 40 37 35 34 32
37 36 37 38 37 35 33 31 30 28 29 33 33 30 27 32 31 29 30 30 31 34 50 53 57 54 59 54 54 49 49 63 55 50 47 43 44 43 41 38 37 34 33
37 38 38 38 35 32 30 29 29 28 26 29 32 29 24 28 27 22 19 27 31 32 47 52 54 55 61 58 55 52 49 60 57 52 49 44 45 45 43 40 37 35 34
37 38 38 36 32 29 28 27 28 28 25 28 32 31 26 13 19 22 19 24 32 31 43 51 51 59 67 47 52 48 42 65 59 53 48 45 45 46 44 41 39 36 35
36 38 38 35 30 29 29 30 30 30 29 23 24 28 29 18 14 20 21 22 31 32 41 45 52 60 67 56 53 54 61 65 55 52 48 47 46 47 45 42 40 37 35
36 38 37 34 30 29 30 30 31 30 29 25 20 19 20 21 16 10 17 21 30 31 40 47 56 59 62 56 56 56 54 65 55 53 50 47 46 47 46 43 41 38 36
35 37 36 34 31 30 32 33 31 28 27 24 20 17 15 13 15 16 21 23 26 32 45 50 52 53 61 55 58 59 64 57 54 53 49 46 46 47 47 44 42 39 37
33 35 35 34 33 33 33 33 32 29 25 21 19 18 18 18 14 14 11 21 28 37 47 49 47 51 53 56 47 73 61 61 53 53 49 47 46 47 47 45 43 40 38
33 35 37 35 33 34 35 34 30 27 23 20 21 21 19 18 13 5 17 17 29 39 45 46 45 49 51 47 54 54 39 60 58 55 49 47 46 46 47 45 43 41 39
34 36 36 35 33 34 34 31 28 26 24 24 22 21 18 13 5 11 13 21 31 42 46 46 47 48 45 41 51 56 66 68 61 55 50 47 46 45 46 46 44 42 39
33 34 36 35 35 35 33 30 28 27 26 24 22 19 13 9 5 12 25 29 40 49 47 45 49 56 37 53 52 51 48 61 59 54 50 47 45 44 44 45 44 42 40
31 32 35 36 36 35 32 30 29 28 26 24 21 18 11 9 10 17 30 32 46 51 48 48 48 51 58 51 47 48 51 63 56 52 50 46 43 43 42 42 43 42 39
30 32 35 37 37 35 33 31 30 30 27 23 20 18 13 18 18 32 30 32 49 48 48 48 50 44 49 45 43 50 42 59 57 52 49 45 43 41 40 40 41 41 39
30 32 34 37 37 36 35 33 32 30 29 25 23 17 16 10 33 30 30 29 42 45 49 36 42 42 36 37 43 45 40 63 60 53 48 45 42 39 38 38 38 39 39
30 31 33 36 37 37 36 35 34 33 29 29 29 22 21 22 30 24 37 32 38 40 37 43 39 41 36 42 41 42 48 64 59 53 47 43 40 37 36 36 36 37 37
31 31 34 36 37 37 36 37 34 33 31 32 32 33 29 29 27 33 38 34 33 37 37 28 37 45 41 36 40 52 51 54 60 55 48 44 39 36 35 34 35 34 35
33 32 32 35 36 37 39 40 36 33 31 34 36 30 30 30 34 34 33 28 30 30 36 30 35 41 42 42 40 52 48 64 59 54 52 47 42 40 37 34 33 32 32
37 33 32 34 37 39 40 40 39 34 32 33 38 34 34 29 34 26 31 28 29 35 24 27 33 36 41 39 47 54 55 64 62 54 53 49 44 40 38 35 34 32 32
39 37 35 34 36 37 41 40 39 36 33 33 37 41 33 31 29 25 25 23 27 29 32 27 28 37 38 36 53 50 61 62 63 58 51 48 44 40 36 33 31 30 30
39 39 38 35 34 36 41 42 40 38 34 34 36 40 43 37 33 24 26 24 23 22 31 31 22 25 39 27 57 49 60 60 58 55 50 48 45 44 40 36 34 31 29
39 39 39 36 34 33 39 42 41 39 36 34 36 36 43 44 31 23 18 27 21 26 26 23 14 17 23 30 51 59 55 56 56 55 53 48 48 44 41 38 35 33 31
40 40 40 39 36 33 35 39 43 43 37 37 35 33 35 37 39 33 20 21 22 20 18 18 22 18 24 33 40 62 50 54 54 52 52 51 48 44 43 41 39 38 36
Wind_Direction
331 330 330 329 327 323 318 313 308 303 298 295 292 291 286 280 275 270 264 258 240 232 223 223 217 213 215 213 218 224 220 200 196 192 190 183 181 173 169 165 165 158 153
333 332 332 331 328 321 317 314 310 306 302 297 291 285 281 277 272 267 264 260 248 230 222 222 215 210 214 209 208 216 228 206 194 189 187 180 181 173 170 165 164 158 154
335 334 333 331 326 322 319 316 312 307 302 298 294 289 283 277 272 266 260 257 251 232 219 220 212 210 211 206 214 218 220 184 190 185 183 180 178 172 170 167 163 158 155
336 336 333 331 328 325 321 317 312 307 303 296 293 290 284 278 273 268 263 258 250 234 216 217 210 208 204 206 210 202 183 185 187 183 180 179 176 172 169 167 163 161 155
338 337 336 334 331 327 323 317 314 309 303 298 295 291 286 278 272 268 265 255 244 233 212 214 207 205 196 205 206 196 190 182 188 183 180 176 175 170 170 166 164 163 156
340 341 339 335 332 329 323 318 315 313 310 303 301 300 295 284 276 270 260 250 239 229 208 207 205 199 193 204 205 202 208 185 189 183 178 175 173 171 169 167 165 163 157
345 343 340 338 335 330 326 325 323 320 317 309 307 305 299 287 281 274 260 237 230 225 204 199 202 192 189 195 204 195 197 206 188 182 175 174 173 172 169 167 166 163 160
346 343 343 339 334 333 336 332 327 324 323 317 316 315 308 264 281 272 262 230 226 216 201 196 194 190 188 189 198 204 204 171 184 178 174 174 173 173 170 167 167 165 162
347 346 345 341 340 342 340 337 334 329 327 328 323 317 316 309 269 254 255 231 222 207 197 185 186 191 184 191 187 200 176 178 181 176 175 174 173 173 170 168 168 166 164
348 349 347 346 345 344 342 340 337 333 331 334 326 313 307 306 302 221 243 238 215 202 187 175 187 192 186 192 191 198 183 180 182 178 175 173 174 173 171 169 168 168 166
351 352 351 350 349 347 345 343 339 337 337 337 329 318 309 294 292 280 232 236 208 193 177 177 189 188 192 182 181 184 173 170 181 178 173 174 175 173 172 171 169 170 168
354 356 356 356 354 351 347 345 344 343 345 340 330 322 319 312 301 280 244 204 191 185 173 178 184 183 190 195 184 161 162 171 180 179 173 175 175 173 173 172 172 171 170
357 360 1 0 358 355 352 348 348 349 350 343 335 327 322 317 309 279 164 180 188 176 168 174 175 179 178 188 193 193 185 170 179 179 174 176 175 173 175 174 174 174 173
0 2 3 3 1 360 356 352 357 357 357 349 339 332 332 333 355 161 179 170 166 161 160 168 172 172 182 177 190 173 163 170 177 174 174 176 175 174 175 176 176 176 175
4 5 5 6 6 4 358 3 8 5 0 352 346 348 1 20 64 154 156 155 152 150 157 164 170 171 168 182 182 177 170 170 174 173 174 177 175 175 175 177 179 180 177
9 8 9 10 10 6 7 13 17 9 4 1 4 9 33 69 122 141 147 150 145 149 157 164 169 170 182 188 188 167 157 168 172 174 174 176 175 175 176 178 181 183 181
13 12 13 14 13 11 14 21 21 16 14 20 21 27 70 95 127 131 142 145 144 153 160 164 164 172 176 171 176 179 164 169 173 175 174 176 175 176 177 178 183 185 185
16 17 17 18 16 16 20 25 26 23 24 33 40 55 83 99 125 137 128 148 138 154 144 154 166 163 162 178 187 179 175 172 170 172 175 175 176 177 178 179 183 185 187
20 21 21 23 20 21 25 29 29 29 30 42 48 53 94 117 124 137 119 129 143 140 151 161 154 156 156 175 173 177 180 159 167 169 173 175 177 179 180 181 184 186 188
23 24 25 26 24 27 28 35 37 36 38 49 55 67 97 103 113 127 128 126 132 149 148 158 155 164 156 163 170 171 172 170 165 168 172 175 176 179 182 184 185 187 189
27 27 28 30 28 30 34 36 43 44 46 56 60 62 79 106 109 126 124 124 134 138 156 155 162 165 167 169 172 174 171 161 167 170 172 174 175 177 180 183 187 188 190
31 30 31 33 33 34 39 37 45 52 53 65 68 73 89 96 107 116 111 117 134 135 151 159 166 172 173 171 163 175 176 167 167 172 176 175 178 179 183 184 187 190 191
35 34 34 35 37 37 44 44 44 53 59 66 70 69 86 97 97 104 118 120 128 165 148 149 152 161 173 169 167 166 175 176 174 171 179 177 178 181 184 185 189 191 194
37 36 37 38 40 41 46 48 48 54 60 67 74 72 74 87 109 89 116 113 126 119 168 167 162 173 182 178 180 175 173 179 179 177 177 180 181 185 186 187 190 193 196
40 40 39 41 44 46 51 54 54 55 62 67 72 75 71 71 89 104 105 121 121 124 124 152 154 174 197 188 186 179 179 182 181 182 182 185 187 188 190 193 195 198 201
43 43 43 43 46 51 57 58 58 59 62 69 73 76 78 77 80 98 124 119 119 119 123 124 140 130 171 178 179 180 179 183 186 186 189 190 193 191 194 198 200 202 205
Height
3042 3033 3025 3018 3010 3006 3001 2998 2994 2992 2989 2986 2982 2979 2979 2979 2980 2981 2983 2985 2992 3001 3010 3019 3028 3037 3046 3056 3061 3069 3078 3088 3097 3105 3112 3118 3126 3131 3137 3142 3148 3152 3155
3033 3025 3017 3010 3004 2999 2994 2988 2984 2980 2978 2975 2974 2971 2968 2968 2969 2970 2971 2973 2978 2986 2998 3006 3016 3025 3034 3047 3049 3057 3067 3076 3092 3101 3108 3116 3123 3130 3137 3142 3148 3152 3156
3026 3018 3010 3004 2998 2991 2985 2980 2975 2971 2968 2965 2963 2961 2959 2958 2959 2959 2959 2962 2966 2972 2983 2993 3004 3013 3025 3037 3044 3048 3055 3070 3087 3096 3104 3112 3120 3128 3135 3142 3147 3151 3156
3020 3013 3005 2997 2991 2984 2977 2972 2968 2964 2960 2956 2954 2953 2950 2949 2948 2949 2950 2952 2955 2959 2969 2980 2993 3003 3017 3028 3037 3043 3053 3067 3085 3093 3100 3108 3117 3125 3134 3141 3146 3152 3156
3015 3007 2998 2990 2984 2978 2972 2967 2962 2957 2953 2949 2946 2944 2941 2938 2938 2939 2941 2943 2945 2948 2956 2967 2982 2993 3009 3020 3031 3044 3026 3059 3083 3091 3097 3104 3114 3122 3132 3139 3145 3152 3156
3010 3002 2994 2987 2980 2973 2967 2961 2956 2952 2946 2940 2937 2935 2932 2927 2927 2929 2930 2933 2936 2938 2944 2958 2972 2985 3000 3014 3027 3038 3045 3053 3079 3087 3095 3102 3111 3120 3130 3138 3145 3152 3156
3004 2997 2990 2982 2975 2969 2963 2956 2950 2945 2940 2934 2929 2927 2925 2919 2918 2920 2920 2922 2927 2929 2936 2950 2964 2979 2993 3007 3022 3034 3042 3044 3075 3083 3091 3100 3109 3119 3128 3137 3145 3151 3157
3000 2994 2986 2979 2972 2966 2959 2952 2945 2939 2935 2928 2921 2917 2915 2916 2912 2911 2912 2914 2918 2923 2933 2944 2958 2974 2988 2997 3013 3027 3030 3049 3066 3077 3089 3099 3108 3118 3127 3135 3144 3151 3157
2999 2992 2984 2976 2969 2962 2954 2947 2940 2933 2927 2924 2918 2912 2906 2907 2906 2904 2904 2907 2911 2918 2928 2939 2955 2968 2986 3000 3011 3023 3031 3048 3063 3076 3087 3098 3107 3117 3126 3135 3143 3151 3157
2998 2990 2982 2974 2966 2959 2951 2943 2935 2928 2921 2917 2915 2911 2906 2901 2899 2899 2899 2901 2906 2915 2925 2937 2951 2965 2982 2996 3008 3019 3024 3045 3064 3075 3086 3096 3106 3116 3125 3134 3142 3150 3156
2997 2989 2981 2972 2964 2956 2948 2939 2931 2924 2918 2913 2909 2905 2901 2898 2895 2892 2894 2896 2902 2911 2922 2935 2949 2964 2978 2992 2999 3013 3024 3046 3063 3074 3084 3095 3106 3115 3124 3133 3141 3149 3156
2996 2989 2980 2970 2961 2953 2945 2936 2927 2920 2915 2910 2905 2900 2896 2891 2889 2886 2887 2892 2900 2909 2920 2934 2950 2965 2977 2988 3000 3010 3028 3042 3060 3073 3083 3096 3106 3114 3123 3133 3140 3148 3156
2995 2987 2977 2968 2959 2951 2942 2933 2925 2918 2912 2907 2901 2896 2891 2887 2883 2882 2885 2890 2897 2907 2920 2935 2952 2966 2978 2989 3001 3013 3023 3038 3059 3073 3083 3096 3105 3113 3124 3132 3140 3148 3156
2994 2985 2977 2968 2959 2950 2941 2933 2925 2917 2911 2904 2897 2891 2886 2882 2880 2882 2885 2890 2898 2908 2922 2938 2953 2968 2978 2986 2999 3011 3016 3039 3058 3071 3083 3096 3105 3114 3123 3131 3139 3148 3156
2995 2986 2978 2969 2959 2950 2941 2933 2925 2917 2910 2902 2894 2889 2884 2881 2880 2882 2887 2892 2900 2910 2926 2942 2955 2969 2979 2991 3000 3010 3024 3044 3058 3070 3084 3096 3105 3114 3123 3131 3140 3148 3155
2996 2988 2979 2970 2961 2951 2942 2934 2926 2918 2910 2901 2894 2888 2885 2883 2883 2885 2891 2896 2903 2915 2928 2943 2958 2969 2982 2993 3000 3013 3029 3045 3058 3072 3085 3097 3105 3114 3123 3131 3140 3149 3155
2997 2989 2980 2971 2962 2953 2943 2935 2928 2920 2911 2903 2897 2891 2887 2888 2888 2892 2899 2904 2909 2920 2934 2948 2961 2972 2985 2994 3003 3014 3026 3043 3059 3074 3086 3097 3106 3115 3123 3131 3140 3148 3155
2998 2990 2983 2974 2966 2956 2946 2938 2931 2923 2914 2907 2902 2895 2894 2894 2895 2902 2909 2913 2920 2930 2943 2951 2964 2975 2985 2994 3004 3015 3026 3041 3059 3075 3088 3098 3107 3116 3124 3131 3140 3147 3153
3001 2994 2986 2978 2970 2960 2950 2943 2935 2927 2919 2913 2906 2902 2901 2903 2908 2911 2917 2924 2931 2942 2951 2959 2967 2977 2987 2998 3007 3016 3026 3044 3061 3076 3089 3100 3108 3117 3124 3131 3139 3145 3152
3005 2997 2990 2982 2974 2965 2957 2949 2941 2933 2926 2920 2914 2910 2910 2914 2918 2921 2926 2934 2943 2951 2960 2968 2975 2984 2993 3002 3010 3019 3028 3043 3060 3073 3087 3098 3107 3116 3124 3131 3138 3144 3150
3008 3001 2995 2988 2980 2972 2962 2954 2948 2942 2935 2930 2924 2919 2920 2924 2929 2933 2939 2942 2950 2957 2965 2972 2979 2989 2997 3004 3012 3022 3034 3044 3062 3073 3082 3093 3102 3110 3119 3129 3136 3143 3149
3013 3007 3001 2994 2986 2978 2970 2961 2955 2950 2945 2940 2936 2933 2931 2934 2939 2942 2948 2952 2958 2964 2971 2977 2986 2994 3000 3009 3016 3026 3035 3044 3057 3071 3081 3091 3102 3111 3120 3127 3135 3141 3147
3018 3013 3006 3001 2993 2986 2979 2970 2964 2959 2955 2951 2947 2944 2943 2945 2949 2953 2956 2960 2968 2971 2977 2984 2990 2997 3004 3011 3019 3027 3040 3048 3055 3067 3080 3091 3102 3111 3119 3127 3134 3140 3146
3025 3019 3012 3006 3001 2995 2988 2980 2975 2969 2965 2961 2959 2956 2955 2955 2960 2964 2967 2969 2973 2977 2983 2989 2995 3002 3009 3015 3025 3031 3037 3050 3062 3072 3081 3090 3099 3105 3114 3122 3129 3136 3143
3033 3027 3020 3015 3008 3003 2997 2992 2987 2981 2976 2972 2971 2969 2967 2967 2971 2974 2976 2980 2983 2988 2992 2997 3002 3007 3008 3015 3022 3035 3043 3052 3063 3071 3081 3090 3095 3105 3112 3120 3127 3134 3140
3041 3035 3029 3023 3017 3013 3007 3002 2997 2992 2989 2985 2983 2982 2980 2981 2983 2985 2988 2990 2994 2996 2998 3001 3004 3005 3008 3016 3024 3035 3042 3053 3064 3072 3081 3088 3096 3103 3108 3116 3123 3130 3136